Weather History for Peru, IN

Change the Weather History Date:

Tuesday, April 8, 2014

  Actual Average Record
Temperature  
Mean Temperature 44 °F -  
Max Temperature 55 °F 58 °F 82 °F (2001)
Min Temperature 34 °F 38 °F 21 °F (1997)
Degree Days  
Heating Degree Days 21    
Moisture  
Dew Point 44 °F    
Average Humidity 82    
Maximum Humidity 100    
Minimum Humidity 60    
Precipitation  
Precipitation 0.00 in - - ()
Sea Level Pressure  
Sea Level Pressure 29.76 in    
Wind  
Wind Speed 9 mph (NW)    
Max Wind Speed 15 mph    
Max Gust Speed 21 mph    
Visibility 10 miles    
Events      
Averages and records for this station are not official NWS values.
T = Trace of Precipitation, MM = Missing Value Source: NWS Daily Summary

Daily Weather History Graph

Daily Weather History Graph

Search for Another Location

Airport:

Trip Planner

Search our weather history database for the weather conditions in past years. The results will help you decide how hot, cold, wet, or windy it might be!

Date:

Astronomy

Apr. 08, 2014 Rise Set
Actual Time 7:16 AM EDT 8:16 PM EDT
Civil Twilight 6:48 AM EDT 8:44 PM EDT
Nautical Twilight 6:15 AM EDT 9:17 PM EDT
Astronomical Twilight 5:41 AM EDT 9:52 PM EDT
Moon 2:07 PM EDT (4/8) 3:31 AM EDT (4/8)
Length of Visible Light 13h 55m
Length of Day
12h 59m
Waxing Gibbous, 62% of the Moon is Illuminated
Apr 8
Waxing Gibbous
Apr 15
Full
Apr 22
Last Quarter
Apr 29
New
May 6
First Quarter

Hourly Weather History & Observations

Time (EDT) Temp. Windchill Dew Point Humidity Pressure Visibility Wind Dir Wind Speed Gust Speed Precip Events Conditions
7:18 AM 35.6 °F 30.7 °F 35.6 °F 100% 29.66 in 6.0 mi WSW 5.8 mph - N/A   Clear
7:58 AM 34.5 °F 27.3 °F 34.5 °F 100% 29.70 in 8.0 mi WSW 9.2 mph - N/A   Clear
8:58 AM 41.9 °F 35.9 °F 41.9 °F 100% 29.70 in 10.0 mi West 10.4 mph - N/A   Clear
9:58 AM 46.0 °F 41.9 °F 46.0 °F 100% 29.72 in 10.0 mi WNW 8.1 mph - N/A   Clear
10:32 AM 46.4 °F 41.9 °F 46.4 °F 100% 29.70 in 10.0 mi NW 9.2 mph - N/A   Partly Cloudy
10:58 AM 47.1 °F - 46.8 °F 99% 29.73 in 10.0 mi WNW 6.9 mph - N/A   Overcast
11:58 AM 48.9 °F - 45.1 °F 87% 29.75 in 10.0 mi North 6.9 mph - N/A   Overcast
12:58 PM 51.3 °F - 45.9 °F 82% 29.74 in 10.0 mi North 10.4 mph - N/A   Partly Cloudy
1:43 PM 53.6 °F - 48.2 °F 82% 29.75 in 10.0 mi North 10.4 mph - N/A   Mostly Cloudy
1:53 PM 51.8 °F - 46.4 °F 82% 29.75 in 10.0 mi North 10.4 mph - N/A   Mostly Cloudy
1:58 PM 52.0 °F - 46.8 °F 82% 29.75 in 10.0 mi NNW 10.4 mph - N/A   Scattered Clouds
2:13 PM 51.8 °F - 46.4 °F 82% 29.75 in 10.0 mi NNW 9.2 mph - N/A   Mostly Cloudy
2:33 PM 53.6 °F - 48.2 °F 82% 29.75 in 10.0 mi NNW 8.1 mph - N/A   Mostly Cloudy
2:38 PM 53.6 °F - 48.2 °F 82% 29.75 in 10.0 mi NNW 9.2 mph - N/A   Mostly Cloudy
2:43 PM 53.6 °F - 48.2 °F 82% 29.76 in 10.0 mi NW 10.4 mph - N/A   Mostly Cloudy
2:58 PM 52.9 °F - 48.0 °F 84% 29.76 in 10.0 mi NW 11.5 mph - N/A   Mostly Cloudy
3:13 PM 51.8 °F - 48.2 °F 88% 29.76 in 10.0 mi NW 12.7 mph - N/A   Overcast
3:58 PM 53.8 °F - 47.3 °F 79% 29.75 in 10.0 mi NW 12.7 mph - N/A   Scattered Clouds
4:08 PM 53.6 °F - 48.2 °F 82% 29.75 in 10.0 mi NW 11.5 mph - N/A   Mostly Cloudy
4:43 PM 53.6 °F - 46.4 °F 77% 29.75 in 10.0 mi NW 11.5 mph - N/A   Mostly Cloudy
4:48 PM 53.6 °F - 46.4 °F 77% 29.75 in 10.0 mi NNW 10.4 mph - N/A   Mostly Cloudy
4:58 PM 54.1 °F - 45.1 °F 72% 29.75 in 10.0 mi NNW 13.8 mph - N/A   Mostly Cloudy
5:03 PM 53.6 °F - 44.6 °F 72% 29.75 in 10.0 mi NNW 15.0 mph - N/A   Mostly Cloudy
5:42 PM 53.6 °F - 42.8 °F 67% 29.75 in 10.0 mi North 15.0 mph - N/A   Mostly Cloudy
5:58 PM 53.8 °F - 42.6 °F 66% 29.76 in 10.0 mi NNW 11.5 mph 20.7 mph N/A   Overcast
6:58 PM 54.0 °F - 40.3 °F 60% 29.79 in 10.0 mi NNW 15.0 mph - N/A   Clear
7:58 PM 51.6 °F - 40.1 °F 65% 29.83 in 10.0 mi North 15.0 mph - N/A   Clear
8:58 PM 47.8 °F - 39.0 °F 71% 29.86 in 10.0 mi NW 5.8 mph - N/A   Clear
9:58 PM 46.6 °F - 38.8 °F 74% 29.89 in 10.0 mi NNW 6.9 mph - N/A   Clear
10:58 PM 45.1 °F 41.4 °F 39.2 °F 80% 29.89 in 10.0 mi NW 6.9 mph - N/A   Clear
11:58 PM 43.2 °F 39.0 °F 39.2 °F 86% 29.89 in 10.0 mi NW 6.9 mph - N/A   Clear